Content
SEND FEEDBACK

Daily
Averages
Monthly
Summary
United States of America

RAPID CITY, SOUTH DAKOTA


Home > North America > United States > South Dakota
Elevation: 963 meters     Latitude: 44 03N     Longitude: 103 04W

WEATHER
 
SELECT A DAY
Number of Records: 200,374;   Date Range: 1/1/95 - 8/12/14
 
SHARE

PRINT THIS DATA

[ ← Previous Day ]
WEATHER ALMANAC - 22 MAY, 2013
[ Next Day → ]
[ °F ]   °C
Weather ElementAverageHighLow
Temperature9.7 °C13 °C (5:09 pm)6.7 °C (4:52 am)
Dewpoint6.5 °C8 °C (2:34 pm)5.6 °C (12:52 am)
Humidity81.4 %93 % (12:26 am)63 % (5:09 pm)
Barometer1016.9 hPa1022 hPa (11:52 pm)1014.2 hPa (12:26 am)
Wind Speed19.2 km/h29.6 km/h (10:24 am)
Wind Gust37 km/h (7:52 am)
Weather ElementAverage
Visibility15 km
Wind DirectionSW (226.8 °)

Weather ElementTotal
Precipitation---
Heating Degree Days8.5 (Base 18.3)
Averaged from 41 records on 22 May, 2013
WEATHER CONDITIONS BREAKOUT
WIND DIRECTION BREAKOUT
WEATHER BY HOUR - 22 MAY, 2013
[ °F ]   °C
Local TimeTemperatureDewpointHumidityBarometerVisibilityWind DirectionWind SpeedGust SpeedPrecipitationEventsConditions
12:26 AM7 °C6 °C93 %1014.2 hPa16.1 kmNNW (340°)24.1 km/hOvercast
12:52 AM7.2 °C5.6 °C90 %1015.2 hPa16.1 kmNNW (340°)20.4 km/hOvercast
1:30 AM7 °C6 °C93 %1014.2 hPa16.1 kmNorth (350°)22.2 km/hOvercast
1:52 AM7.2 °C5.6 °C90 %1014.6 hPa16.1 kmNNW (340°)20.4 km/hOvercast
2:01 AM7 °C6 °C93 %1014.2 hPa16.1 kmNNW (340°)20.4 km/hOvercast
2:52 AM7.2 °C5.6 °C90 %1014.6 hPa16.1 kmNNW (330°)20.4 km/hOvercast
3:52 AM7.2 °C5.6 °C90 %1014.9 hPa14.5 kmNNW (340°)22.2 km/hOvercast
4:52 AM6.7 °C5.6 °C93 %1015.2 hPa6.4 kmNNW (340°)18.5 km/hOvercast
5:07 AM7 °C6 °C93 %1014.6 hPa12.9 kmNNW (330°)14.8 km/hOvercast
5:52 AM7.2 °C6.1 °C93 %1015.6 hPa16.1 kmNNW (340°)14.8 km/hOvercast
6:52 AM7.2 °C6.1 °C93 %1015.6 hPa12.9 kmNW (320°)20.4 km/hOvercast
7:11 AM7 °C6 °C93 %1014.9 hPa14.5 kmNNW (330°)27.8 km/hOvercast
7:52 AM8.3 °C6.1 °C86 %1015.9 hPa16.1 kmNNW (330°)22.2 km/h37 km/hOvercast
8:33 AM8 °C7 °C93 %1015.2 hPa9.7 kmNNW (340°)27.8 km/h0 mmRainLight Rain
8:42 AM8 °C7 °C93 %1015.6 hPa9.7 kmNorth (10°)24.1 km/h0 mmOvercast
8:52 AM8.3 °C6.7 °C90 %1016.3 hPa11.3 kmNorth (360°)22.2 km/h37 km/h0 mmOvercast
9:52 AM8.9 °C6.1 °C83 %1016.6 hPa14.5 kmNorth (360°)25.9 km/h0 mmOvercast
10:24 AM11 °C7 °C76 %1015.9 hPa16.1 kmNorth (350°)29.6 km/hOvercast
10:45 AM10 °C7 °C82 %1016.3 hPa16.1 kmNorth (360°)27.8 km/hOvercast
10:52 AM10 °C6.7 °C80 %1016.9 hPa16.1 kmNorth (350°)27.8 km/hOvercast
11:52 AM10 °C6.1 °C77 %1017.6 hPa16.1 kmNorth (360°)24.1 km/hOvercast
12:17 PM9 °C6 °C82 %1016.9 hPa16.1 kmNorth (350°)27.8 km/hOvercast
12:52 PM10 °C6.7 °C80 %1017.6 hPa11.3 kmNorth (350°)27.8 km/h0 mmOvercast
1:14 PM11 °C7 °C76 %1016.9 hPa16.1 kmNorth (360°)25.9 km/hOvercast
1:52 PM10.6 °C7.2 °C80 %1017.9 hPa16.1 kmNorth (360°)22.2 km/hOvercast
2:34 PM12 °C8 °C77 %1017.3 hPa16.1 kmNorth (360°)29.6 km/h0 mmOvercast
2:52 PM12.2 °C7.2 °C72 %1017.6 hPa16.1 kmNNE (20°)22.2 km/h0 mmOvercast
3:52 PM12.2 °C7.2 °C72 %1017.9 hPa16.1 kmNorth (10°)14.8 km/hOvercast
4:52 PM12.2 °C6.1 °C66 %1018.6 hPa16.1 kmNNE (30°)20.4 km/hOvercast
5:09 PM13 °C6 °C63 %1017.9 hPa16.1 kmNNE (30°)14.8 km/hOvercast
5:52 PM12.8 °C6.1 °C64 %1018.3 hPa16.1 kmNE (40°)20.4 km/hOvercast
6:39 PM12 °C6 °C67 %1018.3 hPa16.1 kmNE (50°)14.8 km/hOvercast
6:49 PM12 °C6 °C67 %1018.3 hPa16.1 kmNE (50°)13 km/hOvercast
6:52 PM12.2 °C6.1 °C66 %1018.6 hPa16.1 kmNE (50°)13 km/hOvercast
7:12 PM12 °C7 °C72 %1018.6 hPa16.1 kmENE (60°)9.3 km/hOvercast
7:37 PM12 °C7 °C72 %1019 hPa16.1 kmENE (60°)9.3 km/hOvercast
7:52 PM11.7 °C6.7 °C71 %1019.3 hPa16.1 kmNE (40°)7.4 km/hOvercast
8:52 PM11.1 °C7.8 °C80 %1020 hPa16.1 kmCalmOvercast
9:52 PM11.1 °C7.8 °C80 %1021.3 hPa16.1 kmCalmOvercast
10:52 PM10.6 °C7.8 °C83 %1021.7 hPa16.1 kmEast (100°)5.6 km/hOvercast
11:52 PM10.6 °C7.8 °C83 %1022 hPa16.1 kmESE (120°)11.1 km/hOvercast
Hourly data recorded from KRAP, located 0 kilometers away from Rapid City, South Dakota







STORIES FROM OUR PARTNERS